Overview Statistics Trail Chart Weather Telemetry Raw packets
 

This is the latest recevied weather packets stored in our database for station/object KD8DNS. If no packets are shown the sender has not sent any weather packets the latest 10 day(s).

<< 106 107 108 109 110 111 112 >>
Time Temp. Humidity Pressure Rain* Wind** Luminosity Snow
1787865829 30° C 56% 1016.9 hPa 0 mm - 61 W/m² -
1787865524 30° C 54% 1016.6 hPa 0 mm - 61 W/m² -
1787865219 30° C 54% 1016.7 hPa 0 mm - 62 W/m² -
1787864915 30° C 54% 1016.8 hPa 0 mm - 80 W/m² -
1787864610 30° C 55% 1016.8 hPa 0 mm - 64 W/m² -
1787864305 30° C 56% 1016.8 hPa 0 mm - 75 W/m² -
1787863999 30° C 53% 1016.8 hPa 0 mm - 67 W/m² -
1787863698 30° C 54% 1016.8 hPa 0 mm - 225 W/m² -
1787863397 30° C 51% 1016.7 hPa 0 mm - 425 W/m² -
1787863093 30° C 52% 1017 hPa 0 mm - 73 W/m² -
1787862788 30° C 51% 1017 hPa 0 mm - 429 W/m² -
1787862487 30.56° C 53% 1017.1 hPa 0 mm - 370 W/m² -
1787862183 30.56° C 56% 1017.3 hPa 0 mm - 177 W/m² -
1787861878 30.56° C 56% 1016.9 hPa 0 mm - 499 W/m² -
1787861576 31.11° C 53% 1017 hPa 0 mm - 512 W/m² -
1787861270 30.56° C 57% 1017.1 hPa 0 mm - 500 W/m² -
1787860965 30.56° C 53% 1017.3 hPa 0 mm - 518 W/m² -
1787860665 30.56° C 52% 1017.4 hPa 0 mm - 531 W/m² -
1787860360 30.56° C 53% 1017.3 hPa 0 mm - 529 W/m² -
1787860054 31.11° C 55% 1017.3 hPa 0 mm - 505 W/m² -
1787859750 31.67° C 53% 1017.6 hPa 0 mm - 584 W/m² -
1787859445 30.56° C 54% 1017.5 hPa 0 mm - 579 W/m² -
1787859145 29.44° C 56% 1017.5 hPa 0 mm - 625 W/m² -
1787858841 30.56° C 56% 1017.4 hPa 0 mm - 102 W/m² -
1787858536 30.56° C 56% 1017.3 hPa 0 mm - 601 W/m² -

* Rain latest hour (hover to see other rain measurements)
** Current wind speed in m/s (hover to see current wind gust speed)